Regional Weather Roundup
Issued by NWS

Home | Current Version | Previous Version | Graphics & Text | Print | Product List | Glossary On
Versions: 1 2 3 4 5 6 7 8 9 10 11 12 13 14 15 16 17 18 19 20 21 22 23 24 25 26 27 28 29 30 31 32 33 34 35 36 37 38 39 40 41 42 43 44 45 46 47 48 49 50
000
ASUS45 KABQ 310010
RWRNM
WEATHER ROUNDUP FOR NEW MEXICO
NATIONAL WEATHER SERVICE ALBUQUERQUE NM
500 PM MST FRI JAN 30 2015

NOTE: "FAIR" MEANS FEW OR NO CLOUDS BELOW 12,000 FEET AGL WITH NO
       SIGNIFICANT WEATHER OR OBSTRUCTIONS TO VISION.

      THIS PRODUCT IS RELEASED AS TWO VERSIONS.  ONE VERSION NEAR
      THE TOP OF THE HOUR CONTAINING PRELIMINARY DATA FROM ALBUQUERQUE
      AND OTHER STATIONS.  A FINAL VERSION WITH ADDITIONAL DATA IS
      ISSUED ABOUT 10 MINUTES AFTER THE HOUR.

NMZ501-503-504-510>518-310100-
NORTHWEST PLATEAU/NORTHCENTRAL MOUNTAINS

CITY           SKY/WX    TMP DP  RH WIND       PRES   REMARKS
FARMINGTON     LGT RAIN  34  33  96 E6        30.02F FOG     WCI  29
6HR MIN TEMP:  32; 6HR MAX TEMP:  34; 6HR PCP:  0.28;

LOS ALAMOS     LGT SNOW  29  29 100 SW5       30.10F WCI  24
SANTA FE       MIX PCPN  31  28  89 SE10      30.10F WCI  22
6HR MIN TEMP:  30; 6HR MAX TEMP:  32; 6HR PCP:  0.09;

TAOS           CLOUDY    28  27  93 CALM      30.11F
ANGEL FIRE     FLURRIES  33  31  94 S6        30.06F WCI  27

$$
NMZ402-403-502-505>509-310100-
WESTCENTRAL MOUNTAINS/SOUTHWEST MOUNTAINS

CITY           SKY/WX    TMP DP  RH WIND       PRES   REMARKS
GALLUP         FLURRIES  34  31  88 NE6       29.99S WCI  29
6HR MIN TEMP:  33; 6HR MAX TEMP:  36; 6HR PCP:  0.15;

GRANTS         LGT SNOW  32  30  92 S14G23    30.05R WCI  22
SILVER CITY    LGT RAIN  39  39 100 E9        30.05F WCI  33

$$
NMZ407-409-411-412-310100-
SOUTHERN DESERTS

CITY           SKY/WX    TMP DP  RH WIND       PRES   REMARKS
LORDSBURG      LGT RAIN  43  41  93 SE17G28   29.97F
DEMING         LGT RAIN  43  42  97 E14       30.03F
6HR MIN TEMP:  43; 6HR MAX TEMP:  45; 6HR PCP:  0.03;

LAS CRUCES     CLOUDY    44  40  88 S7        30.06R
HOLLOMAN AFB   CLOUDY    45  43  93 NW7       30.05F
ALAMOGORDO     CLOUDY    45  45 100 NW9       30.05F
T OR C         LGT RAIN  40  39  97 N3        30.06S
6HR MIN TEMP:  39; 6HR MAX TEMP:  40; 6HR PCP:  0.03;


$$
NMZ519>523-310100-
CENTRAL VALLEYS/CENTRAL HIGHLANDS

CITY           SKY/WX    TMP DP  RH WIND       PRES   REMARKS
ALBUQUERQUE    CLOUDY    36  33  89 N6        30.08F WCI  31
6HR MIN TEMP:  33; 6HR MAX TEMP:  37; 6HR PCP: TRACE;

DOUBLE EAGLE   CLOUDY    30  30 100 N7        30.08F FOG     WCI  23
MORIARTY ARPT  CLOUDY    31  29  94 SE6       30.13F FOG     WCI  25
6HR MIN TEMP:  31; 6HR MAX TEMP:  32;

CLINES CORNERS FOG       27  26  96 E12       30.08F VSB<1/4 WCI  17
6HR MIN TEMP:  27; 6HR MAX TEMP:  28; 6HR PCP:  0.03;

BELEN          CLOUDY    34  34 100 CALM      30.08F FOG
6HR MIN TEMP:  32; 6HR MAX TEMP:  35;

SOCORRO        DRIZZLE   37  37  99 N6        30.07F WCI  32
6HR MIN TEMP:  36; 6HR MAX TEMP:  37;


$$
NMZ524>526-539-540-310100-
SOUTHCENTRAL MOUNTAINS

CITY           SKY/WX    TMP DP  RH WIND       PRES   REMARKS
RUIDOSO        FOG       30  30 100 SE9       30.12F VSB 1/2 WCI  22

$$
NMZ527>531-310100-
NORTHEAST HIGHLANDS/NORTHEAST PLAINS

CITY           SKY/WX    TMP DP  RH WIND       PRES   REMARKS
LAS VEGAS      FRZ RAIN  27  26  96 S14       30.11F VSB 1/2 WCI  16
6HR MIN TEMP:  27; 6HR MAX TEMP:  30; 6HR PCP:  0.10;

RATON          CLOUDY    29  27  92 SW5       30.11F WCI  24
6HR MIN TEMP:  29; 6HR MAX TEMP:  30; 6HR PCP:  0.23;

CLAYTON        CLOUDY    34  32  92 S16       30.15S WCI  24
6HR MIN TEMP:  33; 6HR MAX TEMP:  40; 6HR PCP:  0.03;


$$
NMZ532>537-310100-
EASTCENTRAL PLAINS

CITY           SKY/WX    TMP DP  RH WIND       PRES   REMARKS
TUCUMCARI      CLOUDY    37  34  89 S6        30.19S WCI  32
6HR MIN TEMP:  34; 6HR MAX TEMP:  38; 6HR PCP:  0.03;

CANNON AFB     LGT RAIN  35  31  84 SE6       30.20F WCI  30
6HR MIN TEMP:  35; 6HR MAX TEMP:  38; 6HR PCP:  0.02;

CLOVIS AIRPORT CLOUDY    36  28  75 SE7       30.20F WCI  30

$$
NMZ028-029-538-310100-
SOUTHEAST PLAINS

CITY           SKY/WX    TMP DP  RH WIND       PRES   REMARKS
ROSWELL        CLOUDY    40  32  73 SE6       30.19S
6HR MIN TEMP:  40; 6HR MAX TEMP:  42; 6HR PCP: TRACE;

ARTESIA        CLOUDY    41  34  75 SE8       30.20F
CARLSBAD       CLOUDY    43  32  65 SE3       30.17F
6HR MIN TEMP:  41; 6HR MAX TEMP:  43; 6HR PCP: TRACE;

HOBBS          CLOUDY    41  32  70 E12       30.20F


$$


USA.gov is the U.S. government's official web portal to all federal, state and local government web resources and services.